Regional Weather Roundup
Issued by NWS

Home | Current Version | Previous Version | Text Only | Print | Product List | Glossary Off
Versions: 1 2 3 4 5 6 7 8 9 10 11 12 13 14 15 16 17 18 19 20 21 22 23 24 25 26 27 28 29 30 31 32 33 34 35 36 37 38 39 40 41 42 43 44 45 46 47 48 49 50

610
ASUS44 KMEG 270810
RWRTN
TENNESSEE HOURLY STATE WEATHER ROUNDUP
NATIONAL WEATHER SERVICE MEMPHIS TN
300 AM CDT MON MAR 27 2017

TNZ002-004-019-021-049-052-054-088>092-270900-
WEST TENNESSEE

CITY           SKY/WX    TMP DP  RH WIND       PRES   REMARKS
MEMPHIS INTL   CLOUDY    65  53  65 S8        29.87F
NWS MEMPHIS      N/A     60 N/A N/A MISG        N/A
JACKSON        CLOUDY    55  52  89 CALM      29.91F
DYERSBURG      CLOUDY    59  54  83 E7        29.89F
SOMERVILLE     MOCLDY    59  52  77 SE3       29.89F
BOLIVAR        CLOUDY    54  52  94 CALM      29.91F
PARIS          CLEAR     52  48  87 E6        29.93F
HUNTINGDON     PTCLDY    54  52  94 CALM      29.91F
SAVANNAH       MOCLDY    59  55  88 S5        29.93F
$$

TNZ008-025-027-028-033-062-065-066-270900-
NORTH MIDDLE TENNESSEE

CITY           SKY/WX    TMP DP  RH WIND       PRES   REMARKS
NASHVILLE      MOCLDY    61  54  77 SE5       29.96F
PORTLAND       PTCLDY    55  54  94 CALM      29.96F
CLARKSVILLE    CLOUDY    53  49  86 E5        29.95F
COOKEVILLE     PTCLDY    55  52  88 CALM      29.98F
GALLATIN       MOCLDY    55  54  94 CALM      29.99F
CROSSVILLE     CLOUDY    52  49  89 CALM      30.03F
$$

TNZ061-075-076-078-094-096-097-270900-
SOUTH MIDDLE TENNESSEE

CITY           SKY/WX    TMP DP  RH WIND       PRES   REMARKS
FAYETTEVILLE   PTCLDY    61  55  82 S9        29.99S
TULLAHOMA      CLEAR     50  48  93 CALM      30.00F
WINCHESTER     PTCLDY    55  54  94 SE6       30.00F
MCMINNVILLE    CLEAR     52  52 100 CALM      29.99F
COLUMBIA       CLEAR    N/A N/A N/A CALM      29.94F
SHELBYVILLE    CLEAR     59  55  88 SE5       29.98F
$$

TNZ017-018-042-046-047-270900-
NORTHEAST TENNESSEE

CITY           SKY/WX    TMP DP  RH WIND       PRES   REMARKS
TRI CITIES     CLOUDY    56  53  90 CALM      30.04F
ELIZABETHTON   CLOUDY    55  54  94 CALM      30.05S
$$

TNZ012-013-036-069-073-074-270900-
CENTRAL EAST TENNESSEE

CITY           SKY/WX    TMP DP  RH WIND       PRES   REMARKS
KNOXVILLE      PTCLDY    58  52  80 CALM      30.02R
OAK RIDGE      CLOUDY    56  51  84 CALM      30.03S
DOWNTOWN KNOXV CLOUDY    55  55 100 CALM      30.02S
GATLINBURG     CLEAR     54  50  87 CALM      30.03R
MORRISTOWN     CLOUDY    57  55  94 CALM      30.03R
JACKSBORO      CLEAR     52  50  93 CALM      30.05S
$$

TNZ083-085-099-270900-
SOUTHEAST TENNESSEE

CITY           SKY/WX    TMP DP  RH WIND       PRES   REMARKS
CHATTANOOGA    CLEAR     56  52  86 CALM      30.02S
$$

SKY/WX REPORTED AS FAIR MEANS FEW OR NO CLOUDS BELOW
12 THOUSAND FEET.





USA.gov is the U.S. government's official web portal to all federal, state and local government web resources and services.